« Back
NWS Peachtree City, Ga » Text Product » GA Regional Weather Roundup


Printer-friendly Version
Current Version              Previous Versions:   1  2  3  4  5  6  7  8  9  

Regional Weather Roundup

745
ASUS42 KFFC 301503
RWRGA
WEATHER ROUNDUP FOR GEORGIA
NATIONAL WEATHER SERVICE PEACHTREE CITY GA
1100 AM EDT THU OCT 30 2014

NOTE: "FAIR" INDICATES FEW OR NO CLOUDS BELOW 12,000 FEET WITH NO
SIGNIFICANT WEATHER AND/OR OBSTRUCTIONS TO VISIBILITY.

* = USE WITH CAUTION. THE STATIONS MARKED WITH AN ASTERISK MAY NOT
REPORT WEATHER SUCH AS PRECIPITATION, FOG, OR THUNDER AND ARE NOT
QUALITY CONTROLLED BY NWS.

THE REMARK "TC" DENOTES TEMPERATURE READING IN DEGREES CELSIUS.

GAZ001>058-301600-
NORTH GEORGIA

CITY           SKY/WX    TMP DP  RH WIND       PRES   REMARKS
ATLANTA        MOSUNNY   59  40  49 N8        30.09S
ATHENS         SUNNY     60  41  49 E8        30.09S
CHAMBLEE       SUNNY     59  38  45 VRB6      30.10S
PEACHTREE CITY SUNNY     59  41  51 N8        30.10F
ROME           SUNNY     54  45  71 CALM      30.12S
WEST ATLANTA   SUNNY     58  44  60 N3        30.10S
GAINESVILLE    SUNNY     58  38  47 E3        30.11S
CARTERSVILLE   SUNNY     51  45  79 CALM      30.13S


CITY           SKY/WX    TMP DP  RH WIND       PRES   REMARKS
DALTON*        SUNNY     54  45  71 CALM      30.12F
MARIETTA       MOSUNNY   58  41  52 N5        30.10S
KENNESAW*      SUNNY     55  41  58 N5        30.13R
$$

GAZ059>098-102>109-301600-
CENTRAL GEORGIA

CITY           SKY/WX    TMP DP  RH WIND       PRES   REMARKS
AUGUSTA-BUSH   SUNNY     66  46  48 NE10      30.04F
AUGUSTA-DANIEL SUNNY     66  42  41 N12       30.05F
COLUMBUS       SUNNY     60  39  45 NE13      30.08F
MACON          SUNNY     62  44  51 N12       30.06S
ROBINS AFB     SUNNY     60  46  59 VRB3      30.06S


CITY           SKY/WX    TMP DP  RH WIND       PRES   REMARKS
LAGRANGE*      SUNNY     60  46  60 N6        30.10S
SYLVANIA*      SUNNY     71  58  64 E9        30.03S
MILLEDGEVILLE* MOSUNNY   63  50  63 NE6       30.07S
$$

GAZ099>101-110>166-301600-
SOUTH GEORGIA

CITY           SKY/WX    TMP DP  RH WIND       PRES   REMARKS
SAVANNAH       CLOUDY    68  61  78 N6        30.00S
VALDOSTA       PTSUNNY   65  48  54 VRB3      30.03S
ALMA           MOSUNNY   62  49  62 N6        30.01F
ST SIMONS      SUNNY     72  62  71 N5        29.99S
FT STEWART     PTSUNNY   66  59  77 NW7       29.99S
ALBANY         SUNNY     63  47  55 N9        30.07F
HUNTER AFB     CLOUDY    68  62  81 NW8       29.97F
MOODY AFB      CLOUDY    63  48  58 NW8       30.02F
BRUNSWICK      MOSUNNY   72  61  68 N5        30.00S


CITY           SKY/WX    TMP DP  RH WIND       PRES   REMARKS
BAINBRIDGE*    MOSUNNY   68  48  49 N9        30.06S
MOULTRIE*      MOSUNNY   59  50  72 CALM      30.05F
VIDALIA*       PTSUNNY   63  55  77 CALM      30.03S
WAYCROSS*      CLOUDY    68  57  68 N7        30.01S
DOUGLAS*       MOSUNNY   63  46  55 N5        30.04S
$$



USA.gov is the U.S. government's official web portal to all federal, state and local government web resources and services.